Location: New Canada
(47.1017°N, 68.5042°W)
Time: 03:58:17
(UTC+00:00)

COSMOS 1818 DEB - Pass Details

Date: 01 December 2023
Orbit: 754 x 785 km, 65.0° (Epoch: 12 November)

Event Time Altitude Azimuth Distance (km) Brightness Sun altitude
Rises 23:09:37 0° 285° (WNW) 3,266 ? -23.6°
Reaches altitude 10° 23:13:14 10° 310° (NW) 2,344 ? -24.2°
Maximum altitude 23:16:05 14° 342° (NNW) 2,061 ? -24.7°
Enters shadow 23:18:00 12° 5° (N) 2,194 ? -25.0°
